| time (UTC) | temp C | wind direction | speed KPH | gust KPH | rain 1hr cm | rain 24hr cm | rain mn cm | humidity % | barometer mb |
| 20260502210049 | 34 | 186 | 3.2 | 12.9 | 0.00 | 0.00 | 0.00 | 13 | 1009.6 |
| 20260502205522 | 33 | 216 | 1.6 | 12.9 | 0.00 | 0.00 | 0.00 | 14 | 1009.7 |
| 20260502205025 | 33 | 210 | 1.6 | 20.9 | 0.00 | 0.00 | 0.00 | 14 | 1009.9 |
| 20260502204541 | 33 | 190 | 8.0 | 20.9 | 0.00 | 0.00 | 0.00 | 14 | 1010.0 |
| 20260502204025 | 33 | 238 | 4.8 | 17.7 | 0.00 | 0.00 | 0.00 | 17 | 1010.0 |
| 20260502203525 | 33 | 188 | 4.8 | 22.5 | 0.00 | 0.00 | 0.00 | 17 | 1010.0 |
| 20260502203050 | 33 | 148 | 8.0 | 22.5 | 0.00 | 0.00 | 0.00 | 17 | 1010.2 |
| 20260502202528 | 33 | 142 | 6.4 | 22.5 | 0.00 | 0.00 | 0.00 | 18 | 1010.1 |
| 20260502202024 | 32 | 301 | 1.6 | 14.5 | 0.00 | 0.00 | 0.00 | 17 | 1010.3 |
| 20260502201546 | 32 | 322 | 3.2 | 20.9 | 0.00 | 0.00 | 0.00 | 17 | 1010.3 |
| 20260502201025 | 32 | 135 | 6.4 | 20.9 | 0.00 | 0.00 | 0.00 | 18 | 1010.5 |
| 20260502200525 | 32 | 138 | 4.8 | 17.7 | 0.00 | 0.00 | 0.00 | 19 | 1010.4 |
| 20260502200038 | 32 | 157 | 3.2 | 16.1 | 0.00 | 0.00 | 0.00 | 19 | 1010.5 |
| 20260502195525 | 32 | 154 | 6.4 | 17.7 | 0.00 | 0.00 | 0.00 | 20 | 1010.7 |
| 20260502195025 | 32 | 129 | 1.6 | 17.7 | 0.00 | 0.00 | 0.00 | 20 | 1010.6 |
| 20260502194537 | 32 | 90 | 6.4 | 17.7 | 0.00 | 0.00 | 0.00 | 20 | 1010.8 |
| 20260502194025 | 32 | 160 | 3.2 | 19.3 | 0.00 | 0.00 | 0.00 | 20 | 1010.8 |
| 20260502193525 | 32 | 155 | 1.6 | 19.3 | 0.00 | 0.00 | 0.00 | 20 | 1010.8 |
| 20260502193041 | 32 | 245 | 3.2 | 20.9 | 0.00 | 0.00 | 0.00 | 20 | 1010.9 |
| 20260502192524 | 32 | 184 | 9.7 | 20.9 | 0.00 | 0.00 | 0.00 | 20 | 1011.0 |
| 20260502192024 | 32 | 153 | 3.2 | 16.1 | 0.00 | 0.00 | 0.00 | 20 | 1011.1 |
| 20260502191539 | 31 | 180 | 3.2 | 17.7 | 0.00 | 0.00 | 0.00 | 22 | 1011.2 |
| 20260502191024 | 32 | 157 | 8.0 | 22.5 | 0.00 | 0.00 | 0.00 | 21 | 1011.3 |
| 20260502190525 | 31 | 147 | 9.7 | 22.5 | 0.00 | 0.00 | 0.00 | 21 | 1011.4 |
| 20260502190039 | 31 | 144 | 4.8 | 19.3 | 0.00 | 0.00 | 0.00 | 22 | 1011.4 |
| 20260502185525 | 31 | 122 | 4.8 | 19.3 | 0.00 | 0.00 | 0.00 | 22 | 1011.5 |
| 20260502185025 | 31 | 124 | 8.0 | 24.1 | 0.00 | 0.00 | 0.00 | 22 | 1011.5 |
| 20260502184539 | 31 | 171 | 8.0 | 24.1 | 0.00 | 0.00 | 0.00 | 22 | 1011.6 |
| 20260502184025 | 31 | 142 | 6.4 | 17.7 | 0.00 | 0.00 | 0.00 | 23 | 1011.7 |
| 20260502183525 | 31 | 171 | 4.8 | 16.1 | 0.00 | 0.00 | 0.00 | 24 | 1011.7 |
| 20260502183042 | 31 | 141 | 8.0 | 16.1 | 0.00 | 0.00 | 0.00 | 24 | 1011.9 |
| 20260502182529 | 31 | 136 | 4.8 | 19.3 | 0.00 | 0.00 | 0.00 | 24 | 1012.0 |
| 20260502182022 | 31 | 125 | 6.4 | 19.3 | 0.00 | 0.00 | 0.00 | 23 | 1012.1 |
| 20260502181539 | 31 | 173 | 4.8 | 27.4 | 0.00 | 0.00 | 0.00 | 25 | 1012.2 |
| 20260502181023 | 31 | 174 | 11.3 | 27.4 | 0.00 | 0.00 | 0.00 | 25 | 1012.2 |
| 20260502180526 | 31 | 163 | 8.0 | 22.5 | 0.00 | 0.00 | 0.00 | 25 | 1012.2 |
| 20260502164026 | 28 | 96 | 6.4 | 20.9 | 0.00 | 0.00 | 0.00 | 29 | 1012.5 |
| 20260502163525 | 28 | 121 | 11.3 | 22.5 | 0.00 | 0.00 | 0.00 | 30 | 1012.4 |
| 20260502163042 | 28 | 110 | 9.7 | 22.5 | 0.00 | 0.00 | 0.00 | 29 | 1012.4 |
| 20260502162529 | 28 | 116 | 8.0 | 22.5 | 0.00 | 0.00 | 0.00 | 29 | 1012.4 |
| 20260502162025 | 28 | 159 | 8.0 | 22.5 | 0.00 | 0.00 | 0.00 | 29 | 1012.5 |
| 20260502161539 | 27 | 155 | 9.7 | 22.5 | 0.00 | 0.00 | 0.00 | 31 | 1012.4 |
| 20260502161029 | 27 | 135 | 8.0 | 25.7 | 0.00 | 0.00 | 0.00 | 30 | 1012.5 |
| 20260502160528 | 27 | 98 | 9.7 | 25.7 | 0.00 | 0.00 | 0.00 | 31 | 1012.3 |
| 20260502152022 | 26 | 177 | 12.9 | 22.5 | 0.00 | 0.00 | 0.00 | 32 | 1012.1 |
| 20260502151543 | 26 | 144 | 8.0 | 30.6 | 0.00 | 0.00 | 0.00 | 33 | 1012.0 |
| 20260502151025 | 26 | 159 | 8.0 | 30.6 | 0.00 | 0.00 | 0.00 | 33 | 1011.9 |
| 20260502150525 | 26 | 107 | 9.7 | 29.0 | 0.00 | 0.00 | 0.00 | 33 | 1011.8 |
| 20260502130528 | 22 | 112 | 3.2 | 12.9 | 0.00 | 0.00 | 0.00 | 41 | 1010.6 |
| 20260502123525 | 21 | 91 | 4.8 | 16.1 | 0.00 | 0.00 | 0.00 | 38 | 1010.1 |
| 20260502123042 | 21 | 84 | 8.0 | 19.3 | 0.00 | 0.00 | 0.00 | 37 | 1010.0 |
| 20260502122525 | 21 | 108 | 4.8 | 19.3 | 0.00 | 0.00 | 0.00 | 37 | 1009.9 |
| 20260502122025 | 21 | 92 | 6.4 | 14.5 | 0.00 | 0.00 | 0.00 | 37 | 1009.9 |
| 20260502121538 | 21 | 89 | 6.4 | 14.5 | 0.00 | 0.00 | 0.00 | 36 | 1009.8 |
| 20260502121026 | 20 | 115 | 4.8 | 14.5 | 0.00 | 0.00 | 0.00 | 35 | 1009.9 |
| 20260502120525 | 20 | 109 | 6.4 | 11.3 | 0.00 | 0.00 | 0.00 | 35 | 1009.8 |
| 20260502115525 | 19 | 121 | 1.6 | 9.7 | 0.00 | 0.00 | 0.00 | 34 | 1009.7 |
| 20260502115025 | 19 | 155 | 4.8 | 12.9 | 0.00 | 0.00 | 0.00 | 34 | 1009.7 |
| 20260502114600 | 19 | 155 | 3.2 | 12.9 | 0.00 | 0.00 | 0.00 | 34 | 1009.6 |
| 20260502114025 | 19 | 162 | 3.2 | 6.4 | 0.00 | 0.00 | 0.00 | 34 | 1009.7 |
| 20260502113526 | 19 | 158 | 3.2 | 6.4 | 0.00 | 0.00 | 0.00 | 34 | 1009.6 |
| 20260502113042 | 19 | 144 | 1.6 | 6.4 | 0.00 | 0.00 | 0.00 | 34 | 1009.6 |
| 20260502112523 | 19 | 150 | 1.6 | 8.0 | 0.00 | 0.00 | 0.00 | 34 | 1009.6 |
| 20260502112024 | 19 | 124 | 1.6 | 8.0 | 0.00 | 0.00 | 0.00 | 34 | 1009.7 |
| 20260502111539 | 19 | 97 | 1.6 | 3.2 | 0.00 | 0.00 | 0.00 | 34 | 1009.7 |
| 20260502111023 | 18 | 94 | 0.0 | 3.2 | 0.00 | 0.00 | 0.00 | 34 | 1009.7 |
| 20260502110525 | 18 | 0 | 0.0 | 0.0 | 0.00 | 0.00 | 0.00 | 35 | 1009.7 |
| 20260502110039 | 18 | 0 | 0.0 | 0.0 | 0.00 | 0.00 | 0.00 | 35 | 1009.7 |
| 20260502105525 | 18 | 0 | 0.0 | 0.0 | 0.00 | 0.00 | 0.00 | 35 | 1009.6 |
| 20260502105025 | 19 | 0 | 0.0 | 0.0 | 0.00 | 0.00 | 0.00 | 35 | 1009.6 |
| 20260502104537 | 19 | 0 | 0.0 | 1.6 | 0.00 | 0.00 | 0.00 | 35 | 1009.5 |
| 20260502104025 | 19 | 0 | 0.0 | 3.2 | 0.00 | 0.00 | 0.00 | 34 | 1009.5 |
| 20260502103525 | 19 | 0 | 0.0 | 3.2 | 0.00 | 0.00 | 0.00 | 33 | 1009.4 |
| 20260502103040 | 19 | 0 | 0.0 | 4.8 | 0.00 | 0.00 | 0.00 | 33 | 1009.4 |
| 20260502102525 | 20 | 138 | 0.0 | 4.8 | 0.00 | 0.00 | 0.00 | 33 | 1009.3 |
| 20260502102024 | 20 | 138 | 0.0 | 3.2 | 0.00 | 0.00 | 0.00 | 33 | 1009.4 |
| 20260502101558 | 20 | 138 | 0.0 | 6.4 | 0.00 | 0.00 | 0.00 | 33 | 1009.3 |
| 20260502101024 | 20 | 140 | 1.6 | 6.4 | 0.00 | 0.00 | 0.00 | 33 | 1009.2 |
| 20260502100525 | 20 | 153 | 1.6 | 6.4 | 0.00 | 0.00 | 0.00 | 33 | 1009.3 |
| 20260502091024 | 20 | 126 | 1.6 | 8.0 | 0.00 | 0.00 | 0.00 | 33 | 1009.2 |
| 20260502090524 | 20 | 157 | 3.2 | 9.7 | 0.00 | 0.00 | 0.00 | 33 | 1009.1 |
| 20260502071025 | 21 | 125 | 1.6 | 4.8 | 0.00 | 0.00 | 0.00 | 35 | 1009.1 |
| 20260502070522 | 21 | 125 | 1.6 | 4.8 | 0.00 | 0.00 | 0.00 | 36 | 1009.1 |
| 20260502070048 | 21 | 125 | 1.6 | 4.8 | 0.00 | 0.00 | 0.00 | 34 | 1009.2 |
| 20260502065525 | 21 | 0 | 0.0 | 3.2 | 0.00 | 0.00 | 0.00 | 34 | 1009.1 |
| 20260502065027 | 21 | 0 | 0.0 | 3.2 | 0.00 | 0.00 | 0.00 | 35 | 1009.0 |
| 20260502064552 | 21 | 0 | 0.0 | 3.2 | 0.00 | 0.00 | 0.00 | 35 | 1008.9 |
| 20260502064025 | 21 | 125 | 1.6 | 4.8 | 0.00 | 0.00 | 0.00 | 34 | 1008.9 |
| 20260502063526 | 22 | 145 | 1.6 | 4.8 | 0.00 | 0.00 | 0.00 | 34 | 1008.8 |
| 20260502063052 | 22 | 119 | 0.0 | 4.8 | 0.00 | 0.00 | 0.00 | 34 | 1008.8 |
| 20260502062525 | 22 | 119 | 1.6 | 6.4 | 0.00 | 0.00 | 0.00 | 34 | 1008.8 |
| 20260502062025 | 22 | 119 | 1.6 | 6.4 | 0.00 | 0.00 | 0.00 | 34 | 1008.7 |
| 20260502061542 | 22 | 103 | 1.6 | 6.4 | 0.00 | 0.00 | 0.00 | 34 | 1008.6 |
| 20260502061025 | 22 | 141 | 1.6 | 4.8 | 0.00 | 0.00 | 0.00 | 34 | 1008.6 |
| 20260502060527 | 22 | 141 | 1.6 | 4.8 | 0.00 | 0.00 | 0.00 | 33 | 1008.7 |
| 20260502060045 | 22 | 141 | 0.0 | 3.2 | 0.00 | 0.00 | 0.00 | 33 | 1008.5 |
| 20260502055526 | 22 | 0 | 1.6 | 3.2 | 0.00 | 0.00 | 0.00 | 33 | 1008.6 |
| 20260502055026 | 22 | 141 | 1.6 | 3.2 | 0.00 | 0.00 | 0.00 | 33 | 1008.6 |
| 20260502054539 | 22 | 0 | 0.0 | 1.6 | 0.00 | 0.00 | 0.00 | 34 | 1008.5 |
| 20260502054025 | 22 | 0 | 0.0 | 3.2 | 0.00 | 0.00 | 0.00 | 33 | 1008.5 |
| 20260502053525 | 22 | 0 | 0.0 | 3.2 | 0.00 | 0.00 | 0.00 | 33 | 1008.5 |
| 20260502053052 | 23 | 141 | 0.0 | 3.2 | 0.00 | 0.00 | 0.00 | 32 | 1008.5 |
| 20260502052526 | 23 | 0 | 0.0 | 3.2 | 0.00 | 0.00 | 0.00 | 32 | 1008.5 |
| 20260502052025 | 23 | 141 | 0.0 | 3.2 | 0.00 | 0.00 | 0.00 | 32 | 1008.4 |
| 20260502051540 | 23 | 0 | 0.0 | 3.2 | 0.00 | 0.00 | 0.00 | 31 | 1008.5 |
| 20260502051027 | 23 | 141 | 0.0 | 3.2 | 0.00 | 0.00 | 0.00 | 31 | 1008.3 |
| 20260502050526 | 23 | 141 | 0.0 | 3.2 | 0.00 | 0.00 | 0.00 | 31 | 1008.3 |
| 20260502050039 | 23 | 0 | 0.0 | 3.2 | 0.00 | 0.00 | 0.00 | 31 | 1008.2 |
| 20260502045526 | 23 | 141 | 1.6 | 4.8 | 0.00 | 0.00 | 0.00 | 30 | 1008.2 |
| 20260502045025 | 23 | 144 | 0.0 | 8.0 | 0.00 | 0.00 | 0.00 | 30 | 1008.2 |
| 20260502044539 | 24 | 144 | 3.2 | 8.0 | 0.00 | 0.00 | 0.00 | 29 | 1008.2 |
| 20260502044024 | 24 | 153 | 3.2 | 6.4 | 0.00 | 0.00 | 0.00 | 29 | 1008.1 |
| 20260502043523 | 25 | 0 | 0.0 | 3.2 | 0.00 | 0.00 | 0.00 | 28 | 1008.2 |
| 20260502043058 | 25 | 245 | 0.0 | 3.2 | 0.00 | 0.00 | 0.00 | 29 | 1008.0 |
| 20260502042523 | 25 | 0 | 0.0 | 3.2 | 0.00 | 0.00 | 0.00 | 28 | 1007.9 |
| 20260502042023 | 25 | 248 | 0.0 | 3.2 | 0.00 | 0.00 | 0.00 | 26 | 1008.0 |
| 20260502041546 | 26 | 250 | 0.0 | 3.2 | 0.00 | 0.00 | 0.00 | 26 | 1007.9 |
| 20260502041023 | 26 | 263 | 0.0 | 3.2 | 0.00 | 0.00 | 0.00 | 26 | 1007.9 |
| 20260502040523 | 26 | 265 | 0.0 | 3.2 | 0.00 | 0.00 | 0.00 | 26 | 1007.9 |
| 20260502040042 | 25 | 265 | 0.0 | 3.2 | 0.00 | 0.00 | 0.00 | 26 | 1007.8 |
| 20260502035526 | 26 | 0 | 0.0 | 3.2 | 0.00 | 0.00 | 0.00 | 27 | 1007.8 |
| 20260502035023 | 26 | 266 | 0.0 | 3.2 | 0.00 | 0.00 | 0.00 | 26 | 1007.8 |
| 20260502034540 | 26 | 0 | 0.0 | 1.6 | 0.00 | 0.00 | 0.00 | 26 | 1007.7 |
| 20260502034027 | 26 | 0 | 0.0 | 1.6 | 0.00 | 0.00 | 0.00 | 25 | 1007.7 |
| 20260502033527 | 26 | 0 | 0.0 | 3.2 | 0.00 | 0.00 | 0.00 | 26 | 1007.6 |
| 20260502033040 | 26 | 0 | 0.0 | 3.2 | 0.00 | 0.00 | 0.00 | 24 | 1007.6 |
| 20260502032525 | 27 | 266 | 0.0 | 3.2 | 0.00 | 0.00 | 0.00 | 24 | 1007.5 |
| 20260502032024 | 27 | 0 | 0.0 | 1.6 | 0.00 | 0.00 | 0.00 | 23 | 1007.3 |
| 20260502031539 | 27 | 0 | 0.0 | 1.6 | 0.00 | 0.00 | 0.00 | 23 | 1007.3 |
| 20260502031026 | 27 | 0 | 0.0 | 3.2 | 0.00 | 0.00 | 0.00 | 23 | 1007.2 |
| 20260502030526 | 27 | 0 | 0.0 | 3.2 | 0.00 | 0.00 | 0.00 | 22 | 1007.3 |
| 20260502030045 | 28 | 0 | 0.0 | 1.6 | 0.00 | 0.00 | 0.00 | 21 | 1007.3 |
| 20260502025526 | 28 | 262 | 0.0 | 3.2 | 0.00 | 0.00 | 0.00 | 21 | 1007.2 |
| 20260502025029 | 28 | 0 | 0.0 | 4.8 | 0.00 | 0.00 | 0.00 | 21 | 1007.2 |
| 20260502024543 | 28 | 0 | 0.0 | 4.8 | 0.00 | 0.00 | 0.00 | 21 | 1007.2 |
| 20260502024025 | 28 | 302 | 1.6 | 4.8 | 0.00 | 0.00 | 0.00 | 21 | 1007.1 |
| 20260502023525 | 28 | 290 | 0.0 | 4.8 | 0.00 | 0.00 | 0.00 | 21 | 1007.1 |
| 20260502023039 | 28 | 279 | 0.0 | 6.4 | 0.00 | 0.00 | 0.00 | 21 | 1007.1 |
| 20260502022525 | 28 | 255 | 1.6 | 8.0 | 0.00 | 0.00 | 0.00 | 20 | 1007.1 |
| 20260502022028 | 28 | 282 | 1.6 | 11.3 | 0.00 | 0.00 | 0.00 | 20 | 1007.1 |
| 20260502021539 | 29 | 247 | 3.2 | 11.3 | 0.00 | 0.00 | 0.00 | 20 | 1007.0 |
| 20260502021027 | 29 | 275 | 3.2 | 12.9 | 0.00 | 0.00 | 0.00 | 20 | 1006.9 |
| 20260502020528 | 29 | 258 | 4.8 | 12.9 | 0.00 | 0.00 | 0.00 | 20 | 1006.9 |
| 20260502020039 | 29 | 273 | 3.2 | 11.3 | 0.00 | 0.00 | 0.00 | 20 | 1007.0 |
| 20260502015527 | 30 | 287 | 1.6 | 12.9 | 0.00 | 0.00 | 0.00 | 20 | 1006.9 |
| 20260502015026 | 30 | 267 | 4.8 | 12.9 | 0.00 | 0.00 | 0.00 | 20 | 1006.9 |
| 20260502014540 | 30 | 302 | 3.2 | 12.9 | 0.00 | 0.00 | 0.00 | 20 | 1006.8 |
| 20260502014025 | 30 | 281 | 3.2 | 12.9 | 0.00 | 0.00 | 0.00 | 20 | 1006.8 |
| 20260502013525 | 30 | 275 | 4.8 | 12.9 | 0.00 | 0.00 | 0.00 | 21 | 1006.7 |
| 20260502013051 | 30 | 0 | 1.6 | 6.4 | 0.00 | 0.00 | 0.00 | 21 | 1006.8 |
| 20260502012525 | 30 | 311 | 1.6 | 9.7 | 0.00 | 0.00 | 0.00 | 20 | 1006.6 |
| 20260502012028 | 30 | 297 | 1.6 | 16.1 | 0.00 | 0.00 | 0.00 | 20 | 1006.8 |
| 20260502011542 | 30 | 284 | 3.2 | 16.1 | 0.00 | 0.00 | 0.00 | 20 | 1006.8 |
| 20260502011024 | 30 | 306 | 4.8 | 16.1 | 0.00 | 0.00 | 0.00 | 19 | 1006.9 |
| 20260502010524 | 30 | 327 | 3.2 | 16.1 | 0.00 | 0.00 | 0.00 | 20 | 1006.8 |
| 20260502010042 | 30 | 334 | 6.4 | 16.1 | 0.00 | 0.00 | 0.00 | 20 | 1006.7 |
| 20260502005525 | 30 | 319 | 6.4 | 16.1 | 0.00 | 0.00 | 0.00 | 20 | 1006.6 |
| 20260502005025 | 30 | 264 | 3.2 | 17.7 | 0.00 | 0.00 | 0.00 | 21 | 1006.7 |
| 20260502004543 | 30 | 262 | 3.2 | 17.7 | 0.00 | 0.00 | 0.00 | 21 | 1006.6 |
| 20260502004024 | 30 | 325 | 6.4 | 16.1 | 0.00 | 0.00 | 0.00 | 20 | 1006.6 |
| 20260502003526 | 30 | 294 | 3.2 | 16.1 | 0.00 | 0.00 | 0.00 | 21 | 1006.6 |
| 20260502003039 | 30 | 336 | 4.8 | 16.1 | 0.00 | 0.00 | 0.00 | 21 | 1006.6 |
| 20260502002525 | 30 | 330 | 4.8 | 19.3 | 0.00 | 0.00 | 0.00 | 21 | 1006.7 |
| 20260502002025 | 31 | 320 | 6.4 | 19.3 | 0.00 | 0.00 | 0.00 | 21 | 1006.7 |
| 20260502001539 | 31 | 348 | 4.8 | 14.5 | 0.00 | 0.00 | 0.00 | 21 | 1006.7 |
| 20260502001025 | 30 | 221 | 1.6 | 11.3 | 0.00 | 0.00 | 0.00 | 21 | 1006.7 |
| 20260502000525 | 30 | 49 | 0.0 | 17.7 | 0.00 | 0.00 | 0.00 | 20 | 1006.7 |
| 20260502000035 | 30 | 330 | 1.6 | 17.7 | 0.00 | 0.00 | 0.00 | 20 | 1006.7 |
| 20260501235525 | 31 | 290 | 6.4 | 17.7 | 0.00 | 0.00 | 0.00 | 20 | 1006.8 |
| 20260501235025 | 31 | 275 | 1.6 | 12.9 | 0.00 | 0.00 | 0.00 | 20 | 1006.8 |
| 20260501234542 | 31 | 277 | 3.2 | 14.5 | 0.00 | 0.00 | 0.00 | 20 | 1006.9 |
| 20260501234025 | 31 | 217 | 4.8 | 16.1 | 0.00 | 0.00 | 0.00 | 20 | 1006.9 |
| 20260501233525 | 31 | 277 | 4.8 | 16.1 | 0.00 | 0.00 | 0.00 | 20 | 1006.9 |
| 20260501233040 | 31 | 302 | 4.8 | 17.7 | 0.00 | 0.00 | 0.00 | 19 | 1006.9 |
| 20260501232525 | 31 | 234 | 4.8 | 17.7 | 0.00 | 0.00 | 0.00 | 20 | 1006.9 |
| 20260501232026 | 31 | 234 | 3.2 | 17.7 | 0.00 | 0.00 | 0.00 | 20 | 1007.0 |
| 20260501231539 | 31 | 335 | 3.2 | 17.7 | 0.00 | 0.00 | 0.00 | 20 | 1007.0 |
| 20260501231025 | 31 | 257 | 6.4 | 17.7 | 0.00 | 0.00 | 0.00 | 20 | 1007.0 |
| 20260501230524 | 30 | 251 | 3.2 | 14.5 | 0.00 | 0.00 | 0.00 | 20 | 1007.0 |
| 20260501230038 | 30 | 329 | 3.2 | 19.3 | 0.00 | 0.00 | 0.00 | 19 | 1007.0 |
| 20260501225526 | 30 | 238 | 8.0 | 19.3 | 0.00 | 0.00 | 0.00 | 19 | 1007.0 |
| 20260501225028 | 30 | 300 | 4.8 | 16.1 | 0.00 | 0.00 | 0.00 | 19 | 1007.0 |
| 20260501224540 | 30 | 312 | 1.6 | 14.5 | 0.00 | 0.00 | 0.00 | 20 | 1007.0 |
| 20260501224025 | 30 | 217 | 3.2 | 14.5 | 0.00 | 0.00 | 0.00 | 20 | 1007.1 |
| 20260501223525 | 30 | 307 | 4.8 | 16.1 | 0.00 | 0.00 | 0.00 | 19 | 1007.3 |
| 20260501223043 | 30 | 267 | 3.2 | 20.9 | 0.00 | 0.00 | 0.00 | 20 | 1007.3 |
| 20260501222525 | 30 | 245 | 6.4 | 20.9 | 0.00 | 0.00 | 0.00 | 20 | 1007.3 |
| 20260501222025 | 30 | 297 | 8.0 | 17.7 | 0.00 | 0.00 | 0.00 | 20 | 1007.2 |
| 20260501221540 | 30 | 280 | 6.4 | 17.7 | 0.00 | 0.00 | 0.00 | 20 | 1007.4 |
| 20260501221027 | 30 | 225 | 1.6 | 12.9 | 0.00 | 0.00 | 0.00 | 21 | 1007.3 |
| 20260501220525 | 30 | 32 | 0.0 | 20.9 | 0.00 | 0.00 | 0.00 | 21 | 1007.3 |
| 20260501220041 | 30 | 338 | 6.4 | 20.9 | 0.00 | 0.00 | 0.00 | 21 | 1007.4 |
| 20260501215526 | 31 | 309 | 8.0 | 20.9 | 0.00 | 0.00 | 0.00 | 21 | 1007.4 |
| 20260501215027 | 30 | 316 | 4.8 | 17.7 | 0.00 | 0.00 | 0.00 | 22 | 1007.4 |
| 20260501214539 | 30 | 317 | 8.0 | 17.7 | 0.00 | 0.00 | 0.00 | 21 | 1007.6 |
| 20260501214024 | 30 | 309 | 6.4 | 17.7 | 0.00 | 0.00 | 0.00 | 21 | 1007.6 |
| 20260501213525 | 30 | 198 | 1.6 | 9.7 | 0.00 | 0.00 | 0.00 | 22 | 1007.7 |
| 20260501213040 | 30 | 150 | 3.2 | 14.5 | 0.00 | 0.00 | 0.00 | 21 | 1007.7 |
| 20260501212525 | 30 | 0 | 3.2 | 14.5 | 0.00 | 0.00 | 0.00 | 21 | 1007.8 |
| 20260501212025 | 30 | 298 | 3.2 | 17.7 | 0.00 | 0.00 | 0.00 | 21 | 1007.9 |
| 20260501211552 | 30 | 278 | 6.4 | 17.7 | 0.00 | 0.00 | 0.00 | 21 | 1008.0 |
| 20260501211024 | 30 | 257 | 6.4 | 17.7 | 0.00 | 0.00 | 0.00 | 21 | 1008.1 |
| 20260501210525 | 30 | 247 | 4.8 | 12.9 | 0.00 | 0.00 | 0.00 | 22 | 1008.2 |